Location: Atbuku
(36.4936°N, 30.4362°E)
Time: 17:19:57
(UTC+00:00)

Okean 1-7 Rocket - Visible Passes

Search period start: 14 March 2026 00:00
Search period end: 24 March 2026 00:00
Orbit: 611 x 642 km, 82.5° (Epoch: 14 March)

Date Brightness Start Highest point End Pass type
(mag) Time Alt. Az. Time Alt. Az. Time Alt. Az.
14 Mar 5.3 03:18:20 10° N 03:22:30 38° E 03:26:35 10° SSE visible
14 Mar 6.4 17:26:46 10° SW 17:30:11 21° WNW 17:33:37 10° NNW visible
15 Mar 3.7 03:37:44 10° N 03:42:12 82° E 03:46:35 10° S visible
15 Mar 7.3 17:49:18 10° W 17:50:08 10° WNW 17:50:58 10° WNW visible
16 Mar 7.0 02:21:30 10° NE 02:23:30 13° ENE 02:25:30 10° E visible
16 Mar 4.2 16:26:52 10° SSW 16:31:21 64° W 16:35:51 10° N visible
17 Mar 6.0 02:39:43 10° NNE 02:43:24 25° ENE 02:47:02 10° SE visible
17 Mar 5.8 16:47:05 10° SW 16:51:06 31° WNW 16:55:07 10° NNW visible
18 Mar 4.5 02:58:52 10° N 03:03:11 52° E 03:07:26 10° SSE visible
18 Mar 6.9 17:08:11 10° WSW 17:10:58 16° WNW 17:13:44 10° NW visible
19 Mar 3.5 03:18:25 10° N 03:22:50 73° W 03:27:11 10° S visible
20 Mar 6.5 02:01:23 10° NNE 02:04:17 17° ENE 02:07:08 10° ESE visible
21 Mar 5.3 02:20:07 10° NNE 02:24:07 33° ENE 02:28:04 10° SE visible
22 Mar 3.8 02:39:27 10° N 02:43:51 71° E 02:48:11 10° SSE visible
22 Mar 7.2 16:50:02 10° W 16:51:45 12° WNW 16:53:27 10° NW visible
23 Mar 6.9 01:23:49 10° NE 01:25:05 11° ENE 01:26:21 10° E visible
23 Mar 3.6 02:59:10 10° NNW 03:03:27 53° W 03:07:41 10° S visible
